TimeICT,TemperatureF,Dew PointF,Humidity,Sea Level PressureIn,VisibilityMPH,Wind Direction,Wind SpeedMPH,Gust SpeedMPH,PrecipitationIn,Events,Conditions,WindDirDegrees,DateUTC
12:00 AM,82.4,68.0,62,29.92,5.6,East,8.1,-,N/A,,Scattered Clouds,100,2013-03-06 17:00:00
12:30 AM,82.4,68.0,62,29.92,5.6,ESE,5.8,-,N/A,,Scattered Clouds,110,2013-03-06 17:30:00
1:00 AM,82,75,73,29.89,6,East,5.8,,,,Mist,100,2013-03-06 18:00:00
1:00 AM,80.6,68.0,65,29.92,5.6,ESE,5.8,-,N/A,,Scattered Clouds,110,2013-03-06 18:00:00
1:30 AM,80.6,69.8,70,29.92,5.6,East,4.6,-,N/A,,Scattered Clouds,90,2013-03-06 18:30:00
2:00 AM,78.8,69.8,74,29.89,5.6,East,3.5,-,N/A,,Scattered Clouds,100,2013-03-06 19:00:00
2:30 AM,78.8,69.8,74,29.89,5.6,SE,4.6,-,N/A,,Scattered Clouds,130,2013-03-06 19:30:00
3:00 AM,77.0,69.8,78,29.89,5.6,Calm,Calm,-,N/A,,Scattered Clouds,0,2013-03-06 20:00:00
3:30 AM,78.8,69.8,74,29.86,5.6,East,5.8,-,N/A,,Scattered Clouds,100,2013-03-06 20:30:00
4:00 AM,80.6,69.8,70,29.86,5.6,East,8.1,-,N/A,,Scattered Clouds,90,2013-03-06 21:00:00
4:30 AM,77.0,69.8,78,29.89,5.6,Calm,Calm,-,N/A,,Scattered Clouds,0,2013-03-06 21:30:00
5:00 AM,77.0,69.8,78,29.89,5.6,ESE,4.6,-,N/A,,Scattered Clouds,110,2013-03-06 22:00:00
5:30 AM,77.0,69.8,78,29.89,5.6,East,6.9,-,N/A,,Scattered Clouds,100,2013-03-06 22:30:00
6:00 AM,78.8,69.8,74,29.89,5.6,East,6.9,-,N/A,,Scattered Clouds,100,2013-03-06 23:00:00
6:30 AM,78.8,69.8,74,29.92,5.6,East,8.1,-,N/A,,Mostly Cloudy,100,2013-03-06 23:30:00
7:00 AM,80,73,74,29.90,6,Calm,Calm,,,,Mist,,2013-03-07 00:00:00
7:00 AM,80.6,69.8,70,29.92,5.0,East,5.8,-,N/A,,Mostly Cloudy,100,2013-03-07 00:00:00
7:30 AM,80.6,69.8,70,29.95,5.6,East,12.7,-,N/A,,Mostly Cloudy,90,2013-03-07 00:30:00
8:00 AM,82.4,69.8,66,29.95,5.6,East,8.1,-,N/A,,Mostly Cloudy,100,2013-03-07 01:00:00
8:30 AM,82.4,69.8,66,29.95,5.6,East,8.1,-,N/A,,Mostly Cloudy,90,2013-03-07 01:30:00
9:00 AM,84.2,69.8,62,29.98,5.6,ENE,11.5,-,N/A,,Mostly Cloudy,70,2013-03-07 02:00:00
9:30 AM,84.2,71.6,66,29.98,5.6,East,8.1,-,N/A,,Mostly Cloudy,100,2013-03-07 02:30:00
10:00 AM,84.2,69.8,62,29.98,5.6,East,11.5,-,N/A,,Mostly Cloudy,100,2013-03-07 03:00:00
10:30 AM,86.0,71.6,62,29.98,5.6,ENE,13.8,-,N/A,,Mostly Cloudy,70,2013-03-07 03:30:00
11:00 AM,86.0,71.6,62,29.98,5.0,ENE,12.7,-,N/A,,Mostly Cloudy,70,2013-03-07 04:00:00
11:30 AM,86.0,69.8,58,29.95,5.0,East,9.2,-,N/A,,Mostly Cloudy,80,2013-03-07 04:30:00
12:00 PM,87.8,69.8,55,29.95,5.0,East,10.4,-,N/A,,Mostly Cloudy,90,2013-03-07 05:00:00
12:30 PM,87.8,69.8,55,29.92,5.0,East,11.5,-,N/A,,Mostly Cloudy,80,2013-03-07 05:30:00
1:00 PM,90,71,43,29.90,5,East,10.4,,,,Haze,80,2013-03-07 06:00:00
1:00 PM,89.6,69.8,52,29.92,5.0,East,12.7,-,N/A,,Mostly Cloudy,80,2013-03-07 06:00:00
1:30 PM,91.4,69.8,49,29.89,5.0,East,11.5,-,N/A,,Mostly Cloudy,80,2013-03-07 06:30:00
2:00 PM,91.4,68.0,46,29.86,5.0,East,11.5,-,N/A,,Mostly Cloudy,80,2013-03-07 07:00:00
2:30 PM,91.4,68.0,46,29.86,5.0,East,12.7,-,N/A,,Mostly Cloudy,90,2013-03-07 07:30:00
3:00 PM,91.4,68.0,46,29.83,5.0,East,10.4,-,N/A,,Mostly Cloudy,90,2013-03-07 08:00:00
3:30 PM,89.6,69.8,52,29.83,5.0,East,9.2,-,N/A,,Mostly Cloudy,100,2013-03-07 08:30:00
4:00 PM,89.6,73.4,59,29.83,5.0,North,12.7,-,N/A,,Mostly Cloudy,350,2013-03-07 09:00:00
4:30 PM,89.6,71.6,55,29.83,5.0,West,8.1,-,N/A,,Mostly Cloudy,280,2013-03-07 09:30:00
5:00 PM,87.8,73.4,62,29.83,5.0,WNW,8.1,-,N/A,,Mostly Cloudy,300,2013-03-07 10:00:00
5:30 PM,86.0,73.4,66,29.86,5.0,WNW,9.2,-,N/A,,Mostly Cloudy,300,2013-03-07 10:30:00
6:00 PM,86.0,71.6,62,29.86,4.3,NW,10.4,-,N/A,,Mostly Cloudy,310,2013-03-07 11:00:00
6:30 PM,84.2,71.6,66,29.89,4.3,WNW,10.4,-,N/A,,Mostly Cloudy,300,2013-03-07 11:30:00
7:00 PM,86,74,61,29.83,4,Calm,Calm,,,,Mist,,2013-03-07 12:00:00
7:00 PM,84.2,71.6,66,29.89,4.3,NW,8.1,-,N/A,,Mostly Cloudy,320,2013-03-07 12:00:00
7:30 PM,78.8,73.4,83,29.89,4.3,NNW,6.9,-,N/A,Rain,Light Rain,340,2013-03-07 12:30:00
8:00 PM,78.8,75.2,89,29.92,5.0,Variable,2.3,-,N/A,,Mostly Cloudy,0,2013-03-07 13:00:00
8:30 PM,78.8,75.2,89,29.95,5.0,NNE,3.5,-,N/A,,Mostly Cloudy,20,2013-03-07 13:30:00
9:00 PM,78.8,75.2,89,29.95,3.1,Variable,4.6,-,N/A,Rain,Light Rain,0,2013-03-07 14:00:00
9:30 PM,78.8,75.2,89,29.95,4.3,Calm,Calm,-,N/A,Rain,Light Rain,0,2013-03-07 14:30:00
10:00 PM,77.0,75.2,94,29.95,5.0,Calm,Calm,-,N/A,,Mostly Cloudy,0,2013-03-07 15:00:00
10:30 PM,77.0,75.2,94,29.95,5.0,Calm,Calm,-,N/A,,Mostly Cloudy,0,2013-03-07 15:30:00